RH
16 15 11 10 11 14 15 15 16 17 18 19 20 20 18 18 19 19 20 22 25 25 18 14 16 13 9 12 15 18 20 22 21 15 14 20 26 36 40 36 37 42 43 44 47 48 45 41 38 39 44 48 50 48 41 35 32 31 31 28 26 23 21 21 23 25 27 30 33 32 32 32 32 32 29 28 30 34 39 43 49 55 61 62 56 49
14 12 10 10 12 14 16 17 17 16 18 20 22 22 19 21 22 19 25 30 29 26 17 14 16 13 12 17 19 22 25 25 23 23 26 28 28 30 28 26 33 41 44 43 44 47 46 44 47 50 52 49 44 37 30 26 26 28 28 26 24 22 21 21 22 23 24 29 34 35 35 35 35 36 35 34 34 35 38 42 49 56 61 63 58 51
10 11 11 11 12 14 16 17 16 15 17 19 22 24 21 22 23 21 26 29 27 24 17 17 20 13 14 22 25 27 27 27 26 26 31 30 26 26 24 24 28 31 38 42 41 44 47 49 52 51 45 37 29 23 22 23 23 24 24 23 23 21 21 21 20 20 22 25 31 35 37 37 37 39 40 40 38 37 39 42 47 54 61 64 60 53
9 12 12 11 11 11 14 15 15 14 14 16 20 24 22 24 29 27 23 21 23 25 23 23 22 14 18 25 27 28 25 22 22 20 21 23 25 29 28 26 25 26 36 45 45 45 48 49 47 40 32 26 21 21 22 23 22 22 22 21 20 19 18 18 19 20 22 25 28 32 36 38 40 41 43 44 42 42 43 43 46 52 61 65 62 56
10 14 12 11 9 8 11 13 14 13 10 11 18 23 22 23 27 28 26 22 20 24 29 30 24 15 21 28 24 22 22 21 22 19 17 20 27 32 28 23 22 23 28 37 43 45 44 41 36 30 25 23 22 22 21 21 20 19 18 18 17 16 17 17 19 21 23 25 28 31 34 37 42 45 47 48 48 48 48 46 45 49 57 64 63 57
11 15 13 10 8 10 12 11 12 13 10 12 18 18 16 18 19 23 29 26 23 28 31 38 44 32 23 27 26 22 23 24 23 21 18 20 26 28 24 19 19 19 19 24 31 35 34 32 29 26 25 24 23 22 20 19 20 20 21 21 19 17 16 17 19 21 23 25 28 30 32 36 43 47 49 53 54 53 52 49 44 46 55 64 65 59
11 16 15 10 10 11 11 11 13 13 10 14 17 13 13 16 18 23 26 28 33 38 36 40 51 44 26 19 22 26 28 26 24 22 20 20 22 22 20 21 20 19 18 20 24 27 28 28 27 27 25 24 23 21 20 20 21 25 29 30 30 27 21 18 19 20 22 25 28 30 31 34 40 46 52 58 59 56 56 55 50 50 56 65 67 60
12 17 16 11 10 10 10 11 13 11 11 15 15 12 14 14 17 22 24 28 33 34 39 41 43 47 36 17 16 27 30 27 25 23 22 22 22 21 22 23 22 19 18 19 21 23 24 25 25 24 24 23 22 21 20 21 22 25 30 35 38 37 31 24 22 23 24 27 29 32 33 35 40 48 55 63 66 64 63 65 64 61 62 69 70 62
14 18 16 11 9 10 11 11 12 10 11 14 14 13 13 13 17 20 20 22 25 31 42 43 44 55 45 19 19 29 28 28 28 24 24 24 23 23 23 24 21 18 18 19 21 21 22 23 23 23 23 24 24 24 24 25 27 31 36 41 43 43 40 33 29 29 30 31 32 35 38 40 45 52 59 67 73 73 72 77 81 76 71 74 73 64
14 16 14 11 10 11 11 11 12 10 13 15 13 12 12 13 15 17 16 16 24 40 46 36 37 51 44 22 23 31 28 28 27 24 25 24 24 24 24 24 21 16 17 19 20 23 25 25 25 25 26 29 31 33 36 39 41 45 48 49 49 49 46 41 38 36 35 36 35 36 39 43 48 55 62 70 79 83 84 88 94 91 83 80 76 67
14 12 11 11 12 13 11 12 12 12 17 16 12 12 11 12 16 18 18 17 26 41 38 25 26 42 47 32 26 30 28 26 25 23 24 24 25 26 25 26 22 17 17 18 21 24 27 28 28 29 30 31 34 39 46 50 51 53 54 55 55 54 52 49 45 42 39 39 38 37 38 41 47 55 62 69 78 88 92 93 100 98 88 82 78 71
15 12 11 12 13 13 11 12 12 14 18 15 15 15 10 13 19 20 22 23 31 38 28 21 27 40 49 39 28 30 27 25 25 24 24 25 26 28 28 27 23 21 22 24 25 27 30 32 31 31 30 30 35 41 47 49 49 50 52 54 54 57 59 58 53 48 42 40 39 39 40 42 46 54 61 67 74 84 90 94 100 99 90 83 80 75
15 12 10 12 12 12 12 11 11 14 17 15 16 15 22 38 35 32 43 39 33 33 20 22 36 40 40 34 28 29 29 27 26 24 25 26 27 29 28 26 24 25 28 29 30 32 32 30 26 24 25 30 37 42 45 45 44 44 44 45 46 50 56 59 58 56 52 48 45 43 43 45 49 55 61 67 72 79 86 92 99 100 93 87 83 78
13 13 9 10 12 12 14 13 13 16 17 16 20 22 39 61 55 52 64 52 37 32 15 20 43 42 33 29 23 25 31 31 25 25 28 28 29 29 27 27 27 29 31 31 32 33 27 22 23 27 33 38 42 43 44 43 42 41 40 39 40 43 48 52 55 58 58 56 54 50 48 50 53 58 64 68 71 77 83 90 99 101 95 89 87 83
18 17 10 9 13 14 16 17 16 19 18 16 22 25 34 48 50 52 59 49 42 41 23 21 37 39 31 24 18 23 33 33 25 24 29 29 29 30 28 29 30 30 32 33 34 29 22 25 35 40 44 46 46 45 45 44 43 42 41 40 40 41 43 46 50 54 57 57 58 57 55 56 58 62 67 69 72 77 85 92 99 101 98 94 93 88
17 14 9 10 11 13 17 17 15 18 19 17 18 22 27 34 38 44 47 38 40 52 47 32 27 27 23 14 12 22 31 30 26 24 28 30 28 29 29 29 31 31 32 34 32 25 25 38 49 50 50 50 48 47 46 46 46 45 44 44 44 44 44 46 48 50 52 55 58 61 62 62 63 66 71 75 79 82 89 96 100 100 100 99 98 93
18 11 7 8 8 11 17 19 19 20 19 19 20 21 23 29 38 45 41 35 45 61 54 33 23 23 21 12 8 16 22 23 25 26 28 31 29 28 28 28 31 31 31 32 28 25 30 43 53 54 53 51 50 50 49 49 50 50 50 50 51 51 51 52 53 52 52 53 56 60 63 66 68 71 75 79 84 90 94 99 100 100 101 100 99 95
20 13 5 6 7 8 14 18 20 22 21 22 24 23 24 31 44 49 46 52 66 65 46 29 28 33 34 25 10 9 17 19 21 27 31 31 29 27 28 29 32 32 31 29 28 31 38 46 54 56 55 54 54 54 54 54 55 56 58 58 59 59 58 58 60 60 59 56 56 58 60 64 68 72 78 83 87 92 97 100 100 100 100 100 100 96
19 16 6 4 5 6 11 16 19 22 23 25 26 25 26 33 41 42 47 60 68 67 57 42 36 37 34 24 11 10 17 18 21 27 30 29 28 29 30 31 33 35 32 29 31 37 45 51 57 57 57 59 58 58 59 59 61 62 63 65 65 66 66 66 66 66 65 63 60 58 57 59 63 67 74 83 90 94 96 98 99 100 100 100 100 97
16 19 11 3 3 5 8 12 16 16 19 24 27 28 29 32 36 38 42 48 55 71 78 65 53 40 19 9 10 12 15 21 27 27 27 29 30 31 34 35 39 39 35 37 42 45 49 55 58 58 59 61 62 64 64 63 65 65 66 67 68 68 68 69 69 69 69 69 67 65 61 59 61 64 67 74 86 96 99 98 99 100 100 101 99 97
12 19 17 4 1 5 7 11 15 14 16 21 23 26 31 31 33 35 38 40 49 70 81 76 67 38 5 4 11 10 15 23 27 26 25 27 29 32 38 42 45 44 42 50 58 57 58 62 60 57 57 60 63 66 67 67 68 68 68 69 69 70 70 70 71 71 72 72 72 71 68 61 58 60 63 67 77 88 95 98 100 100 100 100 100 99
9 18 19 8 2 4 5 8 11 12 16 21 21 24 29 32 34 41 46 42 42 55 59 63 65 35 3 7 10 9 18 23 22 24 23 23 29 38 46 48 48 49 52 62 68 67 69 72 68 61 58 60 63 65 67 69 70 69 70 70 70 71 72 72 72 73 73 72 71 69 67 64 60 55 51 52 61 72 84 92 97 99 100 99 100 100
9 18 19 10 4 4 5 6 8 11 14 16 19 21 25 32 35 43 52 45 41 49 46 53 66 40 4 4 10 10 18 20 19 23 23 27 37 47 53 53 53 57 64 71 74 73 73 74 72 66 60 59 61 64 66 69 71 71 71 72 72 72 72 73 74 73 73 72 69 65 59 56 61 61 51 42 40 45 58 74 86 94 98 99 99 100
11 19 18 9 3 2 2 4 5 9 12 14 15 15 20 29 33 40 49 46 47 52 47 58 72 40 2 4 12 12 16 20 24 28 30 37 46 54 58 58 61 67 72 75 76 75 74 73 70 68 64 61 63 65 68 71 72 73 73 71 71 74 75 75 75 75 75 74 69 65 56 47 53 66 67 58 47 35 30 38 55 73 87 95 99 100
12 17 18 18 19 14 8 9 8 7 10 11 9 9 16 26 34 40 46 50 55 51 44 60 68 33 4 9 14 15 21 27 33 38 41 48 57 62 63 64 68 72 74 76 76 77 77 74 71 70 69 67 68 69 69 71 73 78 79 70 65 73 78 77 77 77 78 78 73 70 64 52 47 56 64 65 63 53 36 22 21 35 55 77 92 99
9 12 16 23 31 30 25 22 18 17 17 11 6 7 11 22 34 40 47 58 60 49 44 55 54 30 15 19 22 24 31 37 43 48 54 63 68 68 69 71 74 76 78 80 81 81 80 78 75 74 73 72 73 73 72 73 79 84 81 67 60 70 77 77 78 79 79 80 79 78 75 64 53 52 57 62 63 61 54 40 22 15 22 42 67 87
7 8 13 21 24 22 19 16 16 24 28 20 12 8 6 15 29 41 58 63 52 49 52 46 41 38 32 28 30 36 46 54 61 67 73 76 75 75 78 79 79 81 84 85 85 84 83 81 80 78 78 78 79 79 78 78 80 79 72 64 63 69 75 77 78 80 81 82 82 82 81 75 65 57 56 61 61 59 57 53 41 25 14 17 32 53
9 7 10 19 20 14 10 10 13 22 27 25 22 14 8 14 24 36 49 43 38 58 64 41 34 42 40 38 49 64 75 82 86 90 91 90 88 88 88 88 88 90 91 89 88 88 88 88 87 84 83 82 80 76 71 68 67 65 64 65 68 72 76 78 79 80 81 82 84 85 84 81 75 65 59 56 56 55 54 52 50 42 28 16 15 25
10 9 9 14 17 13 8 10 14 19 25 26 22 14 12 19 22 25 30 27 36 60 60 40 38 44 50 66 81 89 96 99 99 99 99 98 98 98 96 96 97 97 98 96 94 94 96 96 92 87 80 75 72 69 67 67 67 69 70 73 78 83 84 85 88 88 89 90 91 91 88 84 81 76 69 58 49 45 44 44 47 47 41 27 16 18
9 10 10 12 15 12 8 11 15 22 28 23 14 13 18 21 19 19 28 36 44 52 52 51 56 61 74 94 99 96 100 101 99 100 101 97 94 94 97 100 99 98 97 96 95 96 95 90 85 81 76 72 72 72 71 70 70 71 72 73 79 83 84 87 90 88 87 90 93 93 91 90 86 80 73 63 52 43 38 38 42 45 45 36 22 17
10 11 10 13 17 12 7 11 17 25 30 21 13 16 18 19 19 22 36 50 55 57 59 63 70 77 86 96 99 100 100 95 94 98 97 92 87 86 87 86 84 82 77 75 76 76 73 67 62 59 58 58 58 57 56 56 55 55 54 53 55 57 61 65 65 61 59 61 64 67 73 82 86 82 73 62 52 44 39 38 42 45 45 40 28 20
11 13 11 16 23 15 9 14 19 23 23 17 16 20 22 29 37 40 50 60 62 66 68 70 80 90 93 95 99 98 93 90 91 89 83 81 82 78 72 65 59 55 50 47 45 40 36 32 29 28 29 29 30 33 34 36 38 39 37 36 34 35 39 42 41 40 39 38 36 35 42 55 67 73 72 63 50 42 40 39 42 47 45 38 30 21
13 16 15 23 31 20 11 17 21 24 26 20 19 27 37 49 54 51 56 61 63 73 83 89 97 100 98 100 99 93 89 87 84 77 75 79 81 72 58 47 41 36 35 36 36 33 30 27 24 24 26 27 28 29 28 27 29 30 29 28 28 27 27 28 29 30 29 27 26 25 28 35 43 52 59 60 52 41 39 41 45 48 45 38 31 22
14 18 21 32 40 28 16 21 27 30 31 26 23 33 47 62 68 69 75 77 75 81 90 96 99 100 99 98 93 87 84 80 73 69 67 69 69 60 45 36 32 32 34 36 37 37 37 34 32 32 34 35 33 30 29 29 27 26 25 25 24 23 22 23 28 34 36 34 30 28 29 32 36 40 44 51 51 42 37 41 46 47 43 37 32 24
15 20 25 34 42 35 27 35 42 36 29 28 32 36 41 51 61 69 81 88 87 88 92 96 98 96 93 88 83 83 80 73 68 62 55 53 52 47 39 33 32 35 36 35 33 33 34 34 33 33 33 33 30 27 27 26 25 27 28 26 25 25 24 21 21 30 43 48 45 41 39 40 43 45 45 49 49 41 36 40 44 46 43 35 31 27
16 22 28 33 41 41 37 43 48 39 29 32 38 38 40 49 59 69 80 88 93 97 99 96 89 82 78 76 77 78 73 65 59 52 47 43 36 29 25 23 24 28 31 34 35 37 41 42 44 44 41 38 36 34 32 30 28 28 28 28 33 39 40 34 27 29 40 47 49 50 52 53 57 58 60 63 60 48 39 41 43 43 40 35 31 27
17 24 32 37 42 45 46 49 50 42 39 48 58 66 74 80 84 87 89 89 95 98 91 81 74 71 73 75 72 68 62 55 50 44 36 28 18 13 14 15 20 29 37 42 45 50 55 58 61 65 63 59 53 48 44 39 36 38 43 48 52 55 58 56 47 42 44 44 45 52 58 62 66 68 68 71 72 61 49 46 47 43 38 34 29 25
19 25 34 42 46 47 53 65 67 61 64 76 85 88 88 86 85 87 87 87 90 87 75 70 72 73 78 83 78 68 60 59 58 46 30 21 20 22 24 24 32 46 53 53 54 61 68 69 70 75 79 79 74 66 63 61 61 63 67 70 71 72 72 70 59 47 46 48 48 53 62 69 76 81 79 75 77 76 66 57 56 50 41 34 27 25
21 26 33 44 48 46 56 72 74 66 70 85 91 86 81 79 80 82 81 77 76 73 71 75 80 82 85 86 76 67 69 80 84 64 42 41 45 43 40 39 44 54 59 56 56 64 70 69 67 70 76 81 81 75 72 76 76 68 64 68 73 75 77 78 69 55 54 59 60 61 69 77 84 91 92 85 83 88 85 74 67 59 48 38 29 26
24 31 38 44 46 48 60 73 70 64 73 88 94 92 87 82 79 81 83 80 78 79 80 82 81 77 76 73 71 77 88 99 100 82 66 68 66 54 48 47 47 52 57 56 56 62 67 67 66 67 69 70 69 64 64 71 67 57 63 72 66 59 65 72 68 62 64 72 75 77 82 86 87 90 91 84 82 87 91 87 79 67 56 47 37 33
27 36 43 47 48 51 60 66 63 65 79 89 89 93 94 85 80 87 93 93 89 82 72 67 64 62 65 72 82 91 91 86 84 79 72 70 63 51 48 51 52 54 57 61 63 65 69 71 72 76 75 70 64 61 66 72 64 58 69 71 54 48 56 58 56 60 67 74 77 80 85 90 93 92 83 78 81 85 84 83 80 72 68 64 54 48
40 47 50 54 59 60 63 66 65 71 83 88 88 92 94 92 92 98 96 87 75 62 53 52 53 58 70 79 80 80 76 69 69 73 71 66 60 55 55 59 62 63 65 68 71 75 81 84 82 82 78 70 67 68 72 76 72 63 60 54 49 53 56 54 59 68 72 73 71 70 77 87 94 93 83 77 81 81 75 73 71 71 81 86 75 64
51 55 54 59 70 77 78 79 82 87 93 96 97 97 96 95 95 91 78 60 47 42 47 53 55 62 76 80 73 70 71 69 70 74 74 69 67 69 71 73 75 77 79 81 83 88 96 98 93 87 79 73 74 78 79 81 78 67 55 52 59 64 61 65 76 78 74 74 69 63 69 81 91 95 92 88 85 82 81 82 79 82 94 99 90 81
48 57 67 76 85 93 94 93 97 100 101 101 101 100 99 93 77 58 44 36 33 36 45 53 56 61 70 75 74 72 72 72 75 80 80 79 81 84 85 84 85 87 89 90 92 96 100 102 99 91 80 76 82 88 85 80 74 69 66 68 73 72 69 74 80 78 78 80 73 65 69 81 92 98 99 98 96 94 95 97 95 96 100 100 97 95
53 61 75 84 87 90 94 97 99 98 95 94 95 95 94 82 57 33 25 28 32 36 43 51 58 62 66 71 76 77 76 79 84 87 88 90 93 94 93 90 90 93 95 95 95 97 100 102 100 92 82 81 88 92 85 73 68 73 77 78 78 78 78 78 79 81 85 87 80 74 77 85 94 99 100 100 101 100 100 101 100 100 100 99 100 100
54 54 58 66 72 76 79 83 88 87 86 88 91 87 75 55 34 22 23 29 35 39 46 55 61 65 66 70 77 80 81 85 90 92 94 97 97 97 96 95 93 95 97 98 97 97 100 102 98 91 87 86 88 90 83 70 64 71 76 73 74 78 77 76 82 87 88 88 84 78 79 87 95 99 100 100 100 100 100 100 100 100 100 100 100 100
33 37 45 57 69 80 87 89 90 91 91 89 81 65 45 28 20 22 28 33 36 39 44 50 54 59 62 66 74 80 81 85 92 97 98 100 100 98 98 97 97 97 99 100 99 98 100 102 98 93 89 86 86 88 82 69 63 67 69 66 70 75 71 72 83 88 87 90 89 76 71 82 94 99 100 100 100 101 100 100 100 100 100 99 99 99
49 54 64 71 77 89 99 98 93 90 87 76 58 40 26 20 21 25 29 31 32 32 35 38 42 49 54 56 65 76 79 80 87 95 99 101 100 100 99 99 99 99 99 101 100 99 101 101 99 95 89 87 91 92 82 69 63 64 64 63 70 75 70 68 75 80 82 89 88 74 68 79 91 97 99 100 100 100 100 101 100 97 97 100 100 100
82 84 90 92 92 96 99 92 84 79 69 51 35 27 24 24 26 29 32 32 30 29 30 30 32 38 44 48 56 68 74 74 80 90 98 101 100 100 100 100 99 99 100 100 99 101 101 99 99 99 93 90 96 96 85 72 65 61 60 62 68 68 64 62 67 73 82 90 84 71 70 80 90 97 100 100 100 100 99 100 99 98 98 98 94 94
88 94 99 98 95 94 90 80 72 67 54 35 26 28 30 30 32 35 34 33 30 27 27 28 28 29 31 36 47 62 70 73 79 89 98 101 101 100 100 100 100 99 99 100 100 100 100 98 99 101 97 91 94 97 90 78 70 66 64 65 65 59 54 56 60 68 84 92 80 67 71 79 87 97 101 99 100 101 99 100 101 99 95 88 85 90
94 100 100 94 89 87 79 62 48 44 39 31 30 35 34 31 34 35 33 31 29 26 28 33 35 34 33 35 45 64 78 85 88 94 99 100 100 101 101 100 100 100 99 100 101 101 102 101 99 99 94 89 89 93 88 77 72 72 70 65 59 53 49 51 55 65 81 84 69 63 70 76 83 96 101 99 101 101 99 100 101 94 86 86 92 99
Wind_Speed
12 15 18 19 18 17 18 19 18 18 19 19 20 21 24 27 27 26 25 24 25 31 36 39 42 43 38 28 21 18 13 12 15 16 16 16 15 15 16 17 16 15 18 19 18 20 23 24 24 22 22 22 24 28 31 34 34 35 36 37 36 36 37 38 39 39 39 39 39 37 36 36 37 38 39 39 39 39 39 38 38 37 36 34 34 34
13 16 20 20 19 18 18 18 19 19 18 19 20 24 25 26 29 28 23 23 27 35 41 39 39 38 28 20 20 18 13 14 17 16 15 12 10 10 12 16 14 12 17 17 13 13 16 17 16 16 19 23 27 30 31 32 33 33 35 35 36 37 38 40 41 41 41 40 39 39 37 36 37 39 40 40 40 40 40 39 38 37 36 35 34 33
15 18 21 21 20 20 19 19 20 19 19 21 23 25 26 28 31 29 25 27 31 37 39 34 36 33 21 15 17 16 15 16 16 15 12 10 13 13 14 17 15 12 13 11 8 8 10 11 13 17 22 27 30 31 31 32 32 33 34 35 36 39 41 43 44 44 43 42 40 40 38 37 38 39 40 40 41 41 40 40 39 38 36 35 34 32
19 19 21 21 22 21 19 20 21 20 21 23 24 25 27 29 29 30 33 34 33 33 31 31 34 27 19 15 13 14 13 15 15 16 14 15 17 17 18 19 17 12 7 4 4 7 10 13 17 21 24 27 30 31 31 31 32 33 35 37 39 41 43 44 45 45 44 43 42 40 39 38 38 39 40 41 41 41 41 40 40 38 36 35 34 32
21 19 19 22 24 23 20 21 23 24 26 24 23 24 28 30 28 31 35 33 32 27 23 29 29 21 19 14 11 11 11 16 20 18 16 15 15 16 17 19 19 18 13 8 8 10 14 17 20 24 26 29 30 31 31 31 33 35 36 37 39 40 41 42 43 44 44 44 42 41 40 39 38 39 40 41 41 41 42 41 40 39 37 36 34 32
21 18 17 23 26 22 22 24 25 27 30 26 24 25 29 30 28 28 28 30 32 25 23 26 17 14 20 13 9 14 15 17 20 18 17 14 12 14 16 19 19 20 19 16 15 15 17 20 23 26 29 31 33 34 35 34 35 36 36 37 38 39 39 40 40 41 42 43 42 42 41 39 38 38 39 40 40 41 42 41 40 39 37 37 35 32
21 17 16 23 24 20 24 26 25 29 30 26 26 28 28 27 26 24 24 27 26 23 21 18 6 9 20 21 21 22 18 20 18 14 15 13 12 14 16 21 24 23 22 20 20 21 22 25 27 30 31 33 35 37 37 36 37 37 38 38 38 38 38 38 38 39 41 42 41 41 40 39 38 38 38 38 40 41 41 41 40 38 38 37 35 33
19 16 16 23 24 22 26 27 27 29 27 25 27 29 27 25 22 19 20 21 20 20 16 14 9 7 16 29 29 20 19 21 17 14 16 16 17 17 19 26 29 28 25 22 22 23 24 26 28 30 31 32 34 35 35 37 39 40 40 40 39 38 38 38 38 38 40 41 41 40 39 39 37 37 38 38 39 40 40 40 39 38 37 37 35 33
18 17 19 23 24 24 28 28 27 28 25 24 26 27 26 24 19 15 18 19 17 16 11 11 12 4 16 30 23 13 18 19 16 16 17 20 22 21 25 30 32 30 27 27 28 28 29 29 29 30 31 32 34 35 36 38 39 40 41 41 41 40 39 39 39 39 40 40 41 40 39 38 37 37 37 37 38 38 39 38 37 36 37 36 35 33
17 18 21 22 24 25 27 26 26 25 23 24 25 26 24 20 17 14 17 20 13 8 6 10 13 4 16 28 17 13 18 14 15 17 18 22 24 25 29 31 33 31 29 31 35 37 38 38 37 37 37 37 39 38 38 38 37 38 38 38 39 39 39 40 41 42 43 43 43 42 41 39 37 37 37 37 37 36 37 37 36 35 36 36 35 33
17 20 21 21 24 26 26 24 23 23 22 23 26 28 25 21 17 11 16 19 9 5 7 15 21 12 10 17 15 14 15 13 17 20 21 25 26 28 30 31 33 31 30 34 39 42 43 41 41 41 41 42 42 41 38 36 36 36 36 36 36 37 38 39 40 42 43 43 43 42 41 40 38 38 38 37 36 35 36 36 35 35 35 35 34 33
16 20 23 23 25 27 25 23 22 21 21 23 24 28 27 22 17 10 14 16 4 5 12 20 28 19 9 9 13 12 11 14 21 24 27 28 28 30 31 33 36 34 35 38 43 46 44 42 42 41 41 42 41 40 37 36 36 35 35 37 37 36 36 37 38 39 39 39 39 38 38 37 36 36 37 37 36 35 36 35 34 35 35 34 33 33
15 19 24 23 24 27 25 25 24 21 22 23 25 28 22 14 12 8 9 8 3 11 23 27 26 18 12 10 14 18 14 14 22 28 31 30 30 31 33 36 39 39 39 42 45 47 44 43 41 40 39 38 37 37 36 36 35 35 35 36 37 36 35 36 37 37 38 37 36 35 34 33 33 34 35 35 35 35 35 35 34 34 34 33 33 33
18 18 24 24 23 25 23 23 24 22 22 22 24 25 15 5 5 4 4 4 6 19 36 36 19 10 13 14 21 27 18 13 25 30 29 29 29 32 34 37 40 42 41 43 46 45 42 40 38 36 35 34 34 34 33 33 33 34 35 35 36 35 35 35 36 36 37 36 35 34 32 30 30 32 33 33 34 35 35 34 34 33 32 32 32 32
15 12 21 24 24 24 21 18 20 21 18 18 21 20 13 6 2 2 4 3 6 19 36 34 13 6 17 23 26 23 15 15 26 31 27 27 29 32 35 38 40 42 42 43 45 43 40 38 35 35 34 32 31 30 30 30 30 32 32 33 34 34 35 35 35 35 35 34 33 32 31 29 28 30 31 33 34 34 34 34 34 33 31 31 31 31
15 11 17 22 23 23 19 15 18 19 15 15 18 18 17 11 3 6 9 11 13 15 20 22 16 19 26 27 25 18 14 19 25 29 29 28 31 34 38 42 43 43 44 45 45 42 38 36 33 32 31 30 29 29 29 30 30 31 31 32 32 33 34 35 35 36 35 34 33 32 31 29 29 29 30 32 33 33 34 35 35 33 30 30 30 31
18 15 17 21 24 21 16 14 16 17 16 15 15 18 20 13 7 8 11 15 12 5 9 15 20 30 30 24 25 22 20 23 24 27 30 29 33 38 42 44 44 44 45 44 42 40 38 35 32 31 30 30 30 30 31 31 32 33 33 33 33 33 34 35 36 36 36 36 36 34 33 31 30 30 31 32 33 33 34 36 36 33 29 29 30 31
21 20 20 24 25 22 16 14 13 14 17 15 13 17 20 12 7 5 6 9 7 1 10 18 22 28 24 18 25 26 24 26 25 24 27 30 36 40 44 45 45 45 44 41 40 38 36 34 31 31 30 30 31 31 32 33 33 35 35 36 36 36 36 36 37 37 37 37 37 37 37 35 33 32 32 33 33 33 34 36 37 33 28 29 30 31
20 20 21 25 26 22 17 15 15 15 16 15 14 17 18 10 7 7 5 4 4 1 7 19 24 25 25 22 28 28 25 27 26 25 28 33 39 44 46 46 44 44 43 42 40 38 37 35 32 32 32 32 33 33 34 35 35 36 37 38 39 39 39 39 39 39 39 39 39 39 39 38 37 35 33 33 33 34 34 36 38 34 28 28 30 31
18 14 17 25 26 22 19 17 18 18 18 17 16 17 17 12 10 14 11 6 5 2 4 12 16 20 27 28 28 28 27 26 25 28 33 37 42 45 45 44 44 43 44 44 42 39 39 38 35 34 34 34 35 35 36 37 37 38 39 40 41 41 41 41 41 41 41 41 41 41 41 40 38 37 35 34 33 33 34 36 39 36 29 28 30 32
19 12 15 25 27 22 18 16 16 18 19 18 18 18 19 17 15 17 17 11 7 4 3 3 7 23 32 28 25 29 29 26 28 33 39 40 42 44 42 41 42 42 44 44 42 41 43 40 37 37 36 35 36 36 37 38 39 40 40 41 42 43 43 43 43 43 43 42 42 41 41 40 38 37 36 35 34 34 33 35 37 36 32 30 31 33
22 15 17 25 29 25 21 17 17 17 17 17 20 21 21 20 17 13 11 11 9 8 9 4 7 31 39 27 26 33 29 29 36 40 44 44 43 42 39 38 40 41 42 42 42 44 42 37 37 39 39 38 37 38 38 39 40 41 42 43 44 44 45 45 45 44 44 43 43 43 42 40 38 36 36 36 36 36 35 35 35 34 34 34 33 33
22 18 19 25 27 25 21 18 18 17 18 20 21 24 25 23 19 12 8 13 17 17 20 11 9 31 44 32 29 37 35 37 44 46 47 46 42 40 36 36 38 38 39 40 41 43 40 37 39 42 44 42 41 41 40 40 41 42 44 46 47 48 47 47 46 45 44 44 45 45 44 42 39 36 35 35 36 36 37 37 36 36 36 37 38 37
19 16 21 27 29 31 28 24 23 21 22 25 26 29 30 26 21 16 16 20 23 25 24 8 8 30 45 36 33 41 43 44 47 48 49 47 41 36 32 34 36 37 40 41 43 46 45 43 43 44 46 46 45 43 41 41 41 42 46 51 54 53 51 49 48 47 46 45 45 45 45 43 39 36 35 36 36 36 36 37 38 38 37 38 40 40
18 15 19 20 21 27 31 29 32 33 30 29 32 34 34 32 26 23 25 21 17 26 27 8 10 35 47 41 40 45 46 47 50 52 51 45 37 32 32 36 37 39 42 43 46 48 48 46 45 45 46 47 47 45 43 41 41 44 50 56 58 57 54 52 50 49 48 47 47 46 45 43 39 36 36 35 36 36 36 37 37 38 38 38 39 41
21 20 20 13 6 10 16 19 29 35 32 31 36 38 38 37 33 30 28 17 15 27 30 17 22 43 51 45 45 48 49 52 55 52 45 36 30 32 36 38 40 42 43 44 47 48 46 44 43 43 45 46 47 47 45 43 45 52 59 61 58 56 56 54 52 51 50 48 48 46 45 44 41 38 36 34 35 35 36 37 38 38 39 39 39 40
25 27 25 16 12 17 23 28 31 30 28 30 36 41 42 41 41 37 27 21 25 29 31 34 40 48 50 48 49 51 50 49 47 41 34 31 33 37 39 40 42 43 44 46 48 47 44 42 42 43 44 45 46 47 48 50 57 64 66 63 57 54 54 54 53 52 50 49 49 47 45 44 42 40 37 35 34 35 35 36 37 38 39 40 40 39
27 30 28 24 24 29 35 38 33 25 25 29 34 43 46 41 39 38 31 32 35 26 27 39 44 43 47 48 46 44 39 33 33 34 33 33 36 37 37 39 42 44 46 48 47 45 43 41 42 43 45 47 51 55 59 62 65 66 63 59 56 54 52 51 51 51 50 49 49 47 45 43 41 40 38 37 36 36 36 36 36 37 38 40 41 40
29 30 31 33 33 35 39 36 30 25 26 31 38 44 43 34 33 38 39 40 37 28 30 38 40 40 43 38 31 29 27 24 28 36 38 37 38 41 42 43 42 42 43 45 44 43 43 44 45 48 53 58 62 64 64 63 62 60 57 56 54 53 51 50 49 49 49 48 46 45 43 41 39 39 38 37 37 37 37 37 37 37 37 38 40 40
29 30 34 36 38 41 39 34 32 30 31 39 42 36 32 35 38 41 40 35 30 29 31 34 33 33 30 26 26 27 27 28 30 36 41 43 46 50 50 48 45 45 47 49 50 50 52 54 56 59 62 63 63 62 61 60 58 57 55 54 53 51 50 50 49 49 48 46 45 44 42 40 37 37 36 36 37 38 38 38 37 37 37 38 39 40
29 32 33 36 41 43 39 37 37 34 36 41 32 23 31 40 38 34 31 28 26 26 27 26 26 25 24 27 31 32 32 35 36 42 51 55 55 57 57 58 59 60 63 65 66 66 67 68 69 69 68 67 66 66 65 64 63 60 58 57 55 53 52 51 52 51 50 50 49 49 47 44 40 38 37 37 38 39 39 38 37 36 36 37 38 38
29 32 33 35 39 42 42 42 40 40 42 34 21 26 40 38 27 24 25 26 27 28 27 26 24 25 29 34 37 37 39 41 44 53 62 64 62 64 68 71 73 73 73 71 70 70 70 71 71 70 68 66 65 64 63 62 61 59 57 55 54 53 53 53 53 53 52 51 51 51 51 50 48 45 43 41 40 39 40 39 37 35 35 36 37 37
29 32 34 32 33 41 45 42 42 43 34 19 21 34 35 24 20 25 27 30 32 30 27 25 26 31 38 43 45 48 50 53 57 63 66 64 63 68 73 77 77 75 71 66 62 60 58 58 58 57 54 52 50 48 48 48 48 48 48 48 48 48 49 50 50 49 49 48 47 47 48 49 50 50 47 45 43 41 40 38 36 35 34 35 36 37
30 31 33 28 28 38 45 43 41 32 15 15 33 35 19 13 20 26 29 32 32 28 23 23 29 37 45 51 57 60 62 65 68 71 71 68 66 70 74 75 74 71 66 61 58 56 54 53 51 48 45 42 40 40 40 41 41 42 43 44 44 44 45 46 46 46 46 46 44 44 44 45 47 48 47 46 44 43 41 38 35 34 34 34 35 36
31 31 31 29 28 35 41 35 23 15 18 33 43 30 18 19 23 23 30 35 33 30 26 28 36 46 54 60 63 65 67 69 72 75 75 72 69 70 72 71 70 67 63 60 59 57 54 52 51 48 45 43 42 43 44 44 44 45 46 46 46 46 45 45 46 46 47 47 46 44 44 45 46 46 46 45 44 43 41 39 35 33 34 34 35 36
33 31 30 31 28 29 32 22 12 22 39 44 37 28 27 29 28 29 35 37 34 30 29 37 50 57 62 66 67 68 71 73 75 76 74 73 72 72 71 70 67 64 61 59 56 54 52 51 51 50 48 47 46 47 47 47 47 48 49 49 50 49 48 47 46 47 48 49 49 47 47 48 49 48 47 46 46 45 42 40 35 32 33 34 34 35
33 31 31 31 25 22 26 26 28 35 38 32 27 27 30 32 33 35 38 38 32 28 35 52 63 65 67 69 70 72 75 76 77 77 76 74 73 72 70 68 65 61 58 56 54 53 52 51 52 52 51 50 49 49 50 49 49 49 50 51 52 51 50 49 48 48 48 49 50 50 49 49 49 49 48 48 49 49 46 42 37 33 33 33 34 35
34 33 31 27 25 26 27 25 22 19 17 18 22 25 29 33 35 38 41 39 34 36 49 63 66 67 68 68 69 73 75 74 75 75 75 72 69 68 67 65 62 58 56 56 56 56 55 54 55 55 55 54 53 52 53 52 51 51 52 53 53 51 50 50 49 49 48 48 49 49 49 47 46 45 45 46 48 50 50 46 41 36 34 33 34 35
34 34 32 28 30 33 28 20 14 11 12 17 24 31 36 38 42 47 43 38 41 51 60 64 64 66 66 65 69 72 71 70 71 72 71 68 66 66 66 63 60 57 56 57 58 59 58 58 57 57 58 58 56 55 56 56 54 53 54 55 53 52 52 49 48 48 48 47 47 48 48 47 45 42 42 43 44 47 49 48 44 39 36 34 34 34
34 33 31 30 33 35 29 24 22 18 15 19 29 38 42 45 52 48 32 33 51 61 60 61 63 64 65 66 69 68 66 67 69 69 67 65 65 65 64 62 60 58 58 59 59 59 59 59 59 60 60 58 56 55 57 56 53 53 53 53 52 52 50 47 46 47 47 46 45 45 45 45 44 42 41 40 41 44 47 47 44 40 37 34 33 33
35 32 30 30 33 33 29 28 29 22 17 22 32 42 50 54 51 38 27 40 59 60 58 63 64 63 66 66 66 66 64 64 65 66 66 66 66 65 62 61 60 58 58 59 58 59 59 59 59 60 59 56 54 54 54 53 51 50 50 50 50 49 46 45 45 46 46 46 44 43 43 42 42 42 42 40 41 43 45 46 43 39 36 34 32 32
31 30 30 28 27 29 29 30 30 22 19 29 39 46 53 51 41 33 40 53 59 60 62 64 62 63 65 63 63 65 64 63 65 65 66 65 65 63 62 61 60 59 59 58 58 59 59 58 58 57 57 56 53 53 54 52 49 48 48 48 48 46 44 43 43 44 45 45 44 43 42 42 42 41 41 39 38 39 40 41 40 37 35 33 31 30
27 27 30 29 27 30 31 26 20 17 24 38 47 49 50 46 41 45 54 59 61 63 64 61 61 63 62 61 63 64 63 65 65 64 65 65 63 62 61 61 61 61 60 59 58 58 57 57 57 57 57 56 54 54 53 50 48 47 46 45 44 42 41 40 41 43 44 43 43 42 41 41 41 42 42 38 34 32 33 33 33 33 33 31 30 28
29 29 29 30 29 28 28 23 18 21 33 44 49 49 49 50 54 58 61 63 65 64 61 61 63 62 61 62 64 64 65 66 65 64 64 63 61 61 60 60 60 60 58 57 56 55 55 56 57 58 57 55 55 55 50 46 45 45 43 42 40 39 39 39 40 41 42 42 42 40 39 39 40 42 42 39 33 28 28 28 28 29 29 29 27 27
31 31 31 32 32 29 28 29 28 32 42 49 52 54 56 60 64 65 64 65 64 61 61 62 62 62 62 62 62 64 65 64 63 63 62 61 61 61 61 61 60 58 56 55 55 54 55 56 57 57 56 55 55 54 49 43 41 41 40 39 38 37 38 39 39 40 41 41 41 39 37 37 39 40 38 35 33 29 26 25 26 26 26 26 25 25
34 37 37 37 38 37 37 37 39 46 53 55 56 58 61 65 68 67 64 62 60 60 61 60 60 61 61 60 61 63 63 62 63 63 61 62 62 61 61 61 60 57 56 56 55 55 55 57 58 58 56 54 53 54 50 42 38 38 37 36 36 37 38 38 39 39 40 41 41 40 37 36 38 40 39 35 33 30 25 23 24 24 25 24 22 21
40 42 42 42 44 44 43 43 47 53 57 58 60 64 67 68 68 64 61 60 60 61 61 60 60 60 60 60 62 62 62 63 63 63 62 62 62 61 62 62 60 59 57 56 55 55 56 58 59 59 56 53 52 53 50 42 36 36 36 35 36 37 38 38 39 39 39 40 42 40 37 36 37 39 42 40 34 27 23 23 24 24 23 22 20 19
38 41 42 43 45 46 45 46 50 55 59 62 66 69 70 70 67 63 61 61 61 62 62 62 62 62 62 63 62 63 65 65 64 64 64 63 61 61 61 60 59 58 56 55 55 54 56 58 59 59 56 52 50 52 50 42 36 35 34 34 34 36 38 38 38 38 38 40 42 40 37 37 37 38 41 42 34 24 20 20 23 24 22 19 17 16
35 37 38 40 45 47 47 50 55 60 65 68 69 68 67 67 65 64 62 62 63 64 64 65 64 64 64 64 64 66 68 67 66 65 64 62 61 59 58 58 58 56 55 55 55 55 57 58 59 58 55 51 49 50 49 42 37 34 33 33 34 35 38 38 37 37 38 40 42 41 37 37 36 36 39 40 32 22 16 14 14 13 11 11 13 14
34 34 35 39 44 48 50 54 57 61 67 71 69 66 63 63 64 65 65 65 65 65 66 67 68 67 66 66 67 69 70 69 67 65 63 62 60 58 58 58 57 56 56 56 56 56 58 58 57 56 53 48 48 49 47 42 37 34 32 32 33 35 37 37 37 37 38 40 42 39 36 36 36 34 37 37 28 19 15 14 13 10 9 11 14 15
31 32 36 41 45 48 53 58 61 62 66 68 66 63 63 64 65 65 65 65 65 66 66 67 68 69 70 70 71 71 70 69 67 65 63 61 60 59 60 58 56 57 57 56 57 59 59 57 55 53 49 47 47 47 45 42 38 34 31 30 32 33 35 36 37 37 38 40 41 38 35 35 34 32 36 35 24 16 17 18 16 16 15 13 13 13
Wind_Direction
21 15 8 3 360 357 355 354 349 342 338 335 332 329 330 331 331 337 336 333 332 321 322 328 324 326 336 345 1 3 1 2 357 357 2 6 3 348 331 318 317 313 303 305 309 306 302 299 296 296 304 309 311 313 314 315 314 314 312 310 310 310 308 308 308 308 308 309 309 309 308 305 301 297 296 296 296 296 296 297 298 299 300 300 301 304
18 13 7 4 3 359 354 351 346 345 343 339 336 332 336 340 335 338 341 333 329 322 324 330 326 332 348 357 6 12 18 22 18 18 20 17 1 338 325 317 313 301 290 291 292 292 292 292 296 301 305 307 308 310 311 310 310 309 307 306 306 305 304 305 305 305 305 305 305 305 306 306 302 298 296 296 296 296 296 297 297 297 298 298 299 302
16 11 6 6 7 4 359 352 349 353 353 346 344 339 341 345 339 339 340 331 328 323 326 333 330 339 6 19 20 33 38 31 23 19 15 353 340 337 337 336 328 308 295 297 283 260 265 273 288 297 299 304 307 310 310 309 308 306 306 306 305 304 304 305 305 305 305 303 301 302 303 304 303 301 297 296 295 295 297 297 296 297 297 297 298 301
16 10 9 13 11 7 2 357 355 358 358 353 350 346 344 348 343 336 333 331 329 327 330 335 332 344 19 34 42 51 34 17 7 358 347 332 339 346 346 350 352 337 310 299 269 249 261 274 286 295 300 306 310 312 311 309 309 308 308 307 305 305 304 304 305 305 304 302 300 299 300 301 301 301 299 296 296 296 296 296 296 296 296 297 298 300
18 14 18 19 9 6 7 4 2 358 357 358 356 350 346 346 342 333 331 331 334 339 344 341 337 355 27 46 56 33 355 352 358 354 345 337 339 347 351 359 4 354 338 314 284 265 271 279 287 296 305 311 314 314 312 310 310 311 310 309 307 306 305 305 305 304 303 301 300 298 297 298 299 300 299 297 296 295 296 296 296 297 297 297 299 301
21 21 22 15 8 11 13 7 5 358 354 356 355 350 346 343 340 338 336 335 339 347 355 352 344 358 17 38 30 351 330 343 358 356 350 344 338 346 359 5 2 352 339 321 299 283 284 291 296 303 308 311 312 312 310 309 311 311 311 311 310 309 307 306 305 303 302 301 300 298 295 295 295 296 298 297 296 294 295 297 297 299 299 298 300 302
21 23 19 11 11 16 11 6 4 357 352 353 351 346 346 345 344 343 341 340 340 341 353 6 1 329 345 347 342 336 334 346 356 355 349 343 339 346 354 355 353 347 337 320 305 296 296 300 304 306 307 308 306 303 303 304 308 309 310 310 308 307 306 304 303 301 301 300 300 298 295 293 292 294 296 296 295 294 296 297 298 300 300 299 300 301
21 25 16 9 12 13 7 5 360 354 351 351 349 348 349 348 347 349 349 349 343 338 358 22 6 311 311 329 340 336 329 339 345 351 351 339 336 337 338 343 347 348 343 333 321 311 307 306 306 306 305 305 301 298 299 301 304 307 308 309 306 304 302 300 300 299 298 299 299 298 294 292 291 293 295 294 294 294 296 297 299 301 300 300 300 299
24 25 14 9 13 12 6 2 357 355 354 352 352 352 352 350 353 3 1 357 348 344 11 19 357 303 294 325 350 348 327 336 341 343 343 333 330 330 333 339 343 346 346 342 336 329 324 318 313 311 309 309 306 304 304 304 306 309 309 308 306 303 301 299 298 297 297 298 297 297 295 293 291 291 293 293 292 293 295 297 299 300 300 300 299 297
34 26 16 12 12 10 6 3 359 358 359 357 355 353 354 355 359 11 4 358 351 336 355 355 349 333 307 326 355 355 336 345 346 339 334 330 331 331 332 336 338 339 337 336 335 332 329 325 321 321 320 319 318 317 317 315 314 313 311 309 306 305 303 301 299 298 298 299 298 298 296 294 292 291 291 291 291 292 293 295 297 299 299 298 298 298
40 30 20 16 13 7 6 7 5 4 4 2 357 353 355 358 0 11 2 357 354 316 328 333 334 333 313 328 354 352 342 352 350 343 339 336 336 334 332 332 332 329 325 327 329 329 329 326 324 324 323 322 323 324 324 322 320 318 315 313 311 310 308 306 304 302 302 303 303 302 298 294 292 291 290 290 291 291 292 294 296 296 298 299 300 299
43 33 24 18 11 4 5 9 10 8 7 5 0 358 359 358 360 4 358 2 8 303 324 326 328 326 291 314 353 351 341 350 347 344 341 337 334 332 329 328 328 325 322 323 326 329 328 326 323 322 321 322 323 325 325 324 324 323 321 321 320 318 315 312 309 307 307 309 310 309 304 297 292 291 291 291 291 291 291 294 294 295 299 301 300 299
41 30 23 18 10 6 4 5 9 11 8 5 3 6 7 360 357 358 349 357 311 302 322 326 326 319 291 303 341 335 327 346 349 345 340 333 328 326 323 324 327 326 324 323 325 327 326 325 325 324 325 325 325 325 327 328 330 330 330 331 330 328 323 318 315 312 311 312 314 315 311 304 296 294 294 293 292 291 291 292 291 293 298 300 299 299
29 23 18 14 9 9 5 2 4 4 5 8 8 11 17 11 3 347 311 331 309 311 322 325 320 307 305 313 328 323 309 326 345 344 337 329 323 320 319 323 326 325 323 322 323 324 326 329 331 331 330 329 328 328 329 331 332 333 335 336 336 335 332 328 324 319 316 315 316 317 315 308 300 297 297 295 294 292 291 290 288 289 295 298 297 297
16 7 9 10 7 5 5 5 1 357 1 9 11 11 7 5 32 279 292 304 292 304 317 322 320 300 312 321 332 325 288 297 335 339 331 323 318 318 322 325 324 322 321 320 322 324 330 334 335 333 332 331 330 330 329 330 330 332 334 336 337 338 338 337 335 331 327 323 321 320 318 311 302 299 297 297 296 292 289 287 284 285 291 295 295 296
1 354 3 8 8 2 359 1 358 357 360 358 3 6 356 346 299 276 294 294 291 294 307 315 312 307 315 330 346 341 297 296 319 326 319 313 314 320 324 324 321 321 321 321 324 328 334 336 333 330 328 327 327 326 325 326 327 329 330 332 335 336 337 339 339 339 338 336 332 328 324 316 306 301 298 297 297 293 288 284 281 282 288 293 294 295
350 354 7 8 8 4 357 355 357 359 354 344 349 358 350 334 307 300 300 305 310 294 293 298 301 311 322 342 352 343 324 312 310 314 312 308 313 318 320 320 319 319 320 321 325 331 334 334 329 325 322 321 321 320 321 322 323 323 324 325 327 329 330 333 334 336 338 339 340 338 334 327 317 308 301 300 299 295 290 284 280 280 286 292 293 295
342 346 5 8 4 3 357 353 357 354 347 340 335 343 345 336 321 312 293 316 335 307 294 292 294 307 311 329 342 337 330 325 318 312 308 307 312 316 317 318 316 317 318 320 326 333 334 332 326 321 318 316 316 316 316 317 317 319 320 320 321 322 323 325 326 329 331 332 335 336 337 334 328 321 312 306 302 298 293 287 280 278 284 290 292 295
345 339 359 8 2 1 0 354 357 352 340 335 324 329 340 337 314 308 299 311 313 258 295 293 298 304 298 310 332 334 328 326 321 311 307 309 312 316 317 316 315 316 316 319 325 333 336 332 323 318 315 313 312 312 312 313 313 315 316 318 319 320 321 323 324 324 326 326 328 329 331 332 330 328 323 315 309 302 299 293 282 276 280 288 290 294
352 333 346 1 0 1 0 354 353 348 339 333 320 321 332 330 309 303 296 266 256 242 272 293 301 302 308 323 329 327 329 327 320 314 312 313 314 316 317 314 314 313 313 318 323 329 335 332 323 316 313 310 310 310 310 310 311 312 314 315 317 318 319 321 322 323 325 325 326 327 328 329 329 327 325 321 315 307 302 298 288 279 278 283 287 291
352 332 329 351 0 3 1 353 346 342 339 331 320 321 323 321 316 305 296 275 246 213 237 309 291 288 311 337 332 327 334 327 321 320 319 320 319 318 316 312 310 308 311 318 322 325 332 330 320 314 310 306 305 305 306 307 308 309 311 312 313 315 316 318 320 321 323 324 325 326 326 327 327 326 324 321 318 312 306 302 297 287 278 277 283 288
348 333 323 341 353 356 355 352 344 339 338 328 321 321 318 318 316 303 296 289 265 238 259 269 260 287 310 340 337 332 335 324 324 326 324 324 322 320 316 308 306 307 311 318 319 323 329 324 314 312 309 305 302 302 303 304 306 307 308 310 311 313 314 315 316 318 319 320 321 323 324 324 324 324 324 322 319 316 312 308 304 296 283 276 276 279
346 333 326 335 343 347 350 353 350 342 335 331 326 320 316 317 309 280 264 290 292 282 278 265 242 288 312 334 335 334 333 325 330 333 328 326 321 320 315 305 305 308 311 314 314 319 323 316 310 310 309 307 303 301 301 303 306 309 312 314 313 312 313 313 314 314 315 316 317 318 320 321 320 320 322 323 321 319 315 311 308 303 295 286 278 273
346 334 329 333 338 342 344 348 350 344 335 332 329 325 319 316 311 290 272 283 291 286 279 260 225 285 309 327 326 327 329 327 333 335 331 327 322 318 310 304 307 307 308 310 310 316 319 315 312 309 308 308 304 301 302 305 309 314 318 321 317 314 313 312 312 313 313 314 314 315 318 319 318 315 316 320 321 320 317 313 309 306 303 298 289 281
344 334 330 334 339 342 342 344 345 341 337 332 329 329 321 314 312 301 290 286 282 280 278 251 233 283 306 322 321 324 329 327 329 332 332 328 322 315 307 305 307 305 306 310 312 317 319 315 311 307 304 305 303 301 301 304 310 316 320 322 318 312 310 310 310 311 311 312 312 313 314 317 317 315 314 316 318 319 318 315 311 307 303 301 297 292
341 335 334 335 326 327 325 325 330 330 326 326 328 328 322 315 310 305 299 283 265 278 278 256 260 285 303 318 322 326 328 326 328 332 332 328 318 311 309 308 308 308 310 313 316 319 318 312 307 303 301 301 299 299 300 303 310 315 316 317 314 309 306 307 307 307 308 308 309 309 309 311 313 314 314 314 315 316 317 317 315 311 306 300 297 295
340 336 336 331 314 315 315 318 327 324 312 314 322 324 324 321 315 310 299 277 276 281 276 276 283 290 302 317 323 327 330 331 336 338 332 323 314 311 311 310 309 309 311 314 318 318 314 308 304 301 300 299 297 298 301 304 308 311 313 313 311 306 303 302 302 302 304 304 305 305 304 305 307 309 311 312 313 314 315 316 316 314 310 305 299 295
338 336 336 329 322 325 325 326 331 324 309 309 314 319 325 327 321 313 302 296 297 283 273 293 302 300 307 320 326 330 337 343 350 350 338 324 317 312 310 310 310 311 313 316 317 314 309 306 304 304 304 303 303 304 305 306 307 308 310 309 306 303 299 297 297 297 299 300 301 301 301 300 301 303 304 306 309 311 312 313 314 314 313 309 304 298
336 336 335 329 324 326 328 329 331 325 317 315 314 318 324 330 328 319 312 313 308 285 281 305 314 310 314 322 325 329 339 344 349 351 342 330 326 322 318 316 315 315 316 316 315 313 312 311 310 309 309 309 309 309 309 309 309 309 308 305 302 299 297 296 295 295 295 295 296 298 297 296 297 298 299 301 305 309 310 311 312 313 314 312 308 303
334 333 334 330 324 324 330 333 332 327 320 318 320 325 332 333 328 320 319 326 321 305 305 315 317 312 310 312 315 320 325 324 330 337 334 330 332 332 329 325 322 322 322 320 319 319 318 317 315 314 313 312 311 311 311 311 311 310 308 306 304 302 301 300 299 300 301 301 300 300 298 294 294 294 296 299 302 306 308 309 310 311 313 312 310 307
333 332 334 331 322 323 334 336 331 326 321 320 326 341 339 331 324 321 328 337 332 321 317 312 309 307 298 299 311 313 311 313 319 326 330 331 331 331 330 327 324 324 323 321 320 319 317 317 317 315 314 312 310 310 309 309 310 310 309 308 307 305 304 302 302 304 305 304 305 305 302 298 296 296 297 299 301 303 305 306 306 308 310 310 310 308
335 331 333 331 321 321 334 335 329 327 323 323 339 345 337 333 329 330 336 335 328 320 315 312 316 322 318 314 314 309 308 313 318 324 330 332 330 329 329 328 327 326 326 324 322 321 320 320 320 319 318 316 315 314 313 312 312 312 312 311 311 310 307 305 305 305 305 304 305 304 302 299 297 297 298 299 300 300 300 301 303 305 307 308 309 309
337 331 331 330 317 318 331 333 328 327 327 335 348 340 337 341 332 322 322 321 319 320 326 336 341 337 331 327 323 320 321 322 323 326 331 332 330 329 330 330 330 330 330 329 327 327 326 326 325 325 324 324 324 323 323 323 321 320 320 319 318 316 313 312 311 309 307 305 304 302 299 296 293 292 293 295 296 296 296 296 298 301 304 305 307 308
337 332 329 324 308 313 327 330 327 328 328 330 330 326 326 336 324 322 327 325 319 319 325 330 329 329 329 330 331 331 331 330 329 329 331 332 330 329 330 330 330 330 330 330 331 331 331 331 331 329 326 325 327 328 329 329 328 326 324 323 324 322 318 315 312 308 304 300 297 296 294 291 289 288 288 288 289 290 290 291 293 296 299 301 304 306
336 334 327 319 307 310 321 327 329 325 315 319 320 311 294 298 300 310 326 326 317 311 309 312 319 326 330 331 333 333 332 331 329 327 328 330 330 330 329 329 329 330 330 331 331 331 331 331 330 328 324 322 322 323 324 324 324 323 322 322 322 322 321 317 313 309 306 302 296 292 288 286 284 283 283 281 281 281 282 284 287 291 295 297 300 303
337 335 327 320 313 310 316 319 311 308 312 313 309 299 298 303 306 313 321 321 314 306 313 325 328 329 330 330 330 330 329 329 327 327 328 330 329 327 327 327 328 328 327 327 328 328 328 327 326 324 320 317 316 316 317 318 319 319 320 320 319 319 318 317 315 314 312 310 305 299 294 290 286 283 282 281 280 278 277 279 282 285 290 293 296 299
338 334 327 321 314 307 304 300 298 304 310 313 312 314 319 324 329 331 327 321 311 304 319 330 330 329 329 329 328 328 329 328 327 326 327 326 325 325 325 325 326 325 325 325 326 326 325 323 322 320 316 313 311 310 311 312 314 316 317 318 317 317 316 315 315 316 315 314 313 309 304 298 295 292 289 286 285 282 277 277 279 281 284 289 292 295
338 333 327 317 307 305 301 297 301 305 308 316 318 315 314 316 321 327 325 318 310 312 323 329 330 330 331 330 329 330 330 328 325 324 325 325 325 326 326 326 326 325 324 325 325 325 323 322 321 320 317 314 311 310 311 311 312 315 316 316 315 314 314 314 315 315 314 314 314 312 309 303 299 297 295 292 291 288 284 282 283 281 281 284 288 292
336 333 327 313 305 307 302 292 295 291 290 309 316 313 310 309 315 322 321 315 317 323 328 330 331 331 331 329 329 329 328 325 322 322 324 325 325 326 326 325 325 324 324 324 324 324 323 323 322 321 321 319 317 316 317 315 314 315 316 316 315 314 314 314 314 314 313 313 313 312 310 305 299 298 297 295 294 293 291 290 289 284 282 282 284 288
336 331 323 314 310 309 301 290 291 290 292 312 325 323 316 310 317 326 324 320 326 331 332 331 331 329 328 327 326 326 325 323 320 320 323 323 324 325 325 325 325 324 323 323 323 323 322 322 322 322 321 321 319 318 318 318 316 316 316 317 316 316 316 314 313 313 313 313 312 312 312 309 303 298 296 296 295 294 294 296 294 288 283 283 283 286
335 330 320 314 313 311 304 296 295 294 294 305 316 320 317 317 325 334 331 326 329 331 331 330 329 327 326 326 325 324 323 321 320 321 323 324 324 324 325 326 325 324 324 324 324 324 324 324 323 322 322 321 320 319 318 317 316 317 318 317 316 317 316 313 312 314 314 314 313 312 313 313 309 303 298 295 294 295 296 298 298 291 285 284 283 284
333 327 319 315 313 312 309 304 302 300 301 307 313 320 326 331 337 334 327 328 329 329 330 330 328 327 327 326 325 324 323 323 324 324 325 325 325 325 326 326 326 325 326 326 326 326 326 326 325 324 323 323 322 320 318 316 315 317 317 316 316 317 315 312 314 315 315 315 316 315 314 315 314 312 306 298 294 295 296 297 296 292 287 284 282 282
327 321 319 318 317 316 315 313 312 311 316 322 327 332 337 342 340 331 329 330 330 329 330 330 328 329 328 327 326 326 326 326 326 326 325 324 324 325 326 326 326 327 327 327 327 328 328 327 326 325 325 325 324 322 320 316 314 315 315 316 319 320 316 315 317 316 316 318 319 319 318 317 317 319 316 308 299 295 294 295 293 290 287 283 281 279
326 321 319 319 320 319 316 316 315 311 317 326 333 337 337 336 335 333 331 330 330 331 331 330 329 329 328 327 327 327 326 326 326 326 325 324 325 327 326 326 326 326 326 327 327 328 329 328 327 326 325 325 326 326 324 318 314 315 317 319 322 322 319 318 317 316 318 322 323 322 320 318 319 322 319 312 306 298 291 288 285 284 284 282 280 278
321 317 313 312 312 310 309 310 306 303 310 319 325 328 329 330 331 333 332 330 331 332 331 329 329 328 328 328 328 327 327 326 326 325 325 325 326 327 326 325 325 325 326 326 326 327 328 328 327 327 326 326 326 326 325 321 316 317 321 324 324 323 320 319 318 319 322 325 325 324 322 320 322 326 322 313 305 299 288 279 278 278 279 280 279 279
314 313 313 310 308 307 308 310 309 308 313 319 323 326 329 330 331 333 332 331 331 331 330 329 328 328 329 329 329 329 328 328 328 327 326 326 325 325 325 325 324 324 325 325 325 327 328 327 327 327 326 326 325 326 327 323 318 319 323 325 325 323 320 319 320 322 325 327 325 325 326 324 324 329 331 323 310 299 286 276 274 273 273 277 280 280
317 318 318 313 312 315 317 319 320 319 321 325 329 331 331 332 332 333 332 331 331 330 328 328 328 329 329 330 330 330 329 330 330 329 327 326 325 324 324 324 324 324 325 324 325 326 326 326 327 327 326 326 326 327 329 325 318 318 322 324 325 322 320 320 321 323 326 327 325 326 329 328 327 330 335 334 324 304 283 273 271 271 271 274 276 277
319 320 319 315 315 317 320 324 326 324 324 329 332 333 332 332 332 332 332 332 331 328 327 326 327 328 329 329 330 331 330 330 331 330 328 327 325 323 323 323 323 323 322 322 323 323 324 325 327 326 326 326 327 328 330 327 320 318 321 324 324 322 320 320 321 324 327 325 324 327 332 332 331 331 336 338 331 309 288 282 277 271 267 269 271 275
314 315 318 318 318 320 323 328 331 330 329 332 333 332 332 332 332 332 333 332 330 328 326 326 326 327 327 328 329 330 329 329 329 329 327 325 324 323 322 322 321 321 321 321 321 321 323 326 327 326 326 326 327 328 330 328 322 319 321 323 322 320 320 320 321 325 326 323 324 329 334 334 333 332 337 341 334 316 311 316 302 280 272 285 293 289
316 322 329 331 329 330 333 335 336 334 331 332 332 332 333 333 333 333 333 331 328 327 326 325 325 325 325 325 327 328 329 328 327 327 325 323 322 321 320 320 320 320 320 319 319 321 324 327 327 327 327 327 327 327 328 328 323 320 321 322 321 320 321 320 320 324 325 323 324 329 334 335 333 334 341 345 337 322 325 333 334 337 332 312 299 293
325 336 342 341 337 334 334 335 335 333 330 331 333 334 333 333 332 332 331 329 326 326 326 325 325 325 324 324 326 328 328 327 326 326 324 321 319 319 319 319 319 319 319 318 319 322 325 326 327 327 327 328 327 326 326 329 327 323 321 320 319 319 320 320 320 322 323 323 325 330 335 336 333 336 346 350 343 329 326 325 326 330 324 308 301 305